Location: ????????
(54.6123°N, 39.2099°E)
Time: 09:51:42
(UTC+00:00)

Cosmos 1758 - Pass Details

Date: 19 May 2025
Orbit: 491 x 512 km, 82.5° (Epoch: 13 June)

Event Time Altitude Azimuth Distance (km) Brightness Sun altitude
Rises 21:41:35 0° 350° (N) 2,646 8.4 -15.3°
Reaches altitude 10° 21:43:45 10° 354° (N) 1,753 7.2 -15.2°
Maximum altitude 21:47:34 63° 76° (ENE) 581 3.5 -15.2°
Enters shadow 21:49:46 23° 151° (SSE) 1,112 4.4 -15.1°
